Total_Precipitation_Accumulation
1.83 2.19 2.51 2.94 3.37 3.88 4.58 5.13 5.47 5.41 5.15 4.76 4.33 4.01 3.52 3.16 2.83 2.46 2.23 2.02 1.80 1.71 1.90 1.70 1.79 1.80 1.75 1.62 1.58 1.67 1.68 1.50 1.74 1.93 1.52 1.17 1.01 0.91 0.79 0.77 0.81 0.74 0.80
1.76 2.06 2.56 2.86 3.19 3.65 4.13 4.50 4.43 4.10 3.94 3.86 3.70 3.40 3.34 3.18 2.91 2.66 2.43 2.05 1.83 1.68 1.54 1.58 1.50 1.51 1.59 1.44 1.35 1.48 1.48 1.27 1.48 1.60 1.53 1.17 1.02 0.87 0.63 0.66 0.66 0.71 0.87
1.36 1.66 2.20 2.51 2.67 3.04 3.32 3.36 3.21 2.97 2.96 2.99 2.88 2.90 3.06 3.09 2.98 2.77 2.48 2.18 1.99 1.85 1.71 1.57 1.41 1.36 1.31 1.30 1.27 1.34 1.37 1.27 1.22 1.27 1.43 1.21 0.96 0.80 0.59 0.53 0.58 0.76 0.93
1.05 1.32 1.66 1.85 2.07 2.23 2.38 2.41 2.41 2.32 2.30 2.33 2.22 2.07 2.12 2.26 2.41 2.59 2.57 2.52 2.35 2.10 1.86 1.69 1.45 1.23 1.13 1.23 1.05 1.10 1.28 1.33 1.14 1.07 1.08 1.09 1.19 1.13 0.83 0.56 0.50 0.70 0.80
1.05 1.18 1.25 1.37 1.50 1.52 1.66 1.71 1.92 2.15 2.20 2.17 2.24 2.08 1.79 1.71 1.70 1.79 1.92 1.98 2.01 1.88 1.63 1.49 1.38 1.16 1.03 1.04 1.03 1.15 1.17 1.17 1.07 1.05 1.02 1.09 1.22 1.19 1.11 0.84 0.72 0.72 0.65
0.79 0.92 1.02 1.08 1.13 1.14 1.29 1.48 1.75 2.07 2.20 2.20 2.11 2.02 1.85 1.78 1.67 1.61 1.59 1.51 1.56 1.53 1.41 1.29 1.24 1.11 1.04 1.04 1.00 1.05 1.11 1.16 1.19 1.18 1.18 1.21 1.20 1.24 1.36 1.18 1.00 0.91 0.75
0.52 0.52 0.59 0.67 0.73 0.77 0.87 1.13 1.35 1.53 1.69 1.81 1.79 1.68 1.73 1.78 1.65 1.46 1.33 1.23 1.17 1.15 1.15 1.17 1.18 1.11 1.10 1.13 1.19 1.17 1.12 1.15 1.22 1.21 1.26 1.30 1.25 1.32 1.45 1.42 1.21 1.09 1.04
0.34 0.31 0.35 0.43 0.49 0.54 0.60 0.73 0.99 1.14 1.30 1.41 1.53 1.60 1.72 1.79 1.71 1.75 1.51 1.31 1.14 1.05 1.07 1.20 1.23 1.14 1.09 1.04 1.19 1.18 1.20 1.24 1.24 1.18 1.35 1.40 1.27 1.41 1.58 1.63 1.60 1.45 1.43
0.23 0.23 0.26 0.32 0.35 0.39 0.47 0.52 0.66 0.85 1.06 1.23 1.38 1.45 1.40 1.38 1.42 1.49 1.48 1.33 1.28 1.15 1.21 1.25 1.31 1.29 1.26 1.24 1.30 1.23 1.29 1.45 1.46 1.40 1.44 1.47 1.40 1.45 1.57 1.70 1.78 1.78 1.73
0.24 0.23 0.22 0.24 0.25 0.29 0.40 0.51 0.56 0.71 1.03 1.33 1.44 1.31 1.23 1.11 1.17 1.19 1.24 1.31 1.29 1.26 1.29 1.28 1.29 1.32 1.30 1.28 1.35 1.34 1.40 1.55 1.59 1.63 1.71 1.66 1.55 1.59 1.63 1.67 1.81 1.95 1.97
0.25 0.24 0.19 0.19 0.25 0.26 0.34 0.52 0.63 0.77 1.04 1.35 1.51 1.44 1.26 1.19 1.20 1.10 1.04 1.14 1.22 1.25 1.27 1.22 1.19 1.15 1.18 1.31 1.45 1.42 1.45 1.51 1.56 1.57 1.55 1.52 1.53 1.57 1.47 1.52 1.64 1.82 1.98
0.22 0.20 0.14 0.14 0.18 0.20 0.31 0.62 0.92 1.25 1.41 1.65 1.86 1.79 1.43 1.24 1.15 0.99 0.92 1.01 1.16 1.23 1.22 1.16 1.13 1.10 1.19 1.36 1.46 1.53 1.70 1.79 1.72 1.61 1.51 1.39 1.44 1.51 1.49 1.57 1.58 1.65 1.88
0.22 0.23 0.16 0.15 0.16 0.17 0.22 0.39 0.52 0.83 1.14 1.44 1.70 1.61 1.32 1.13 1.03 1.01 1.00 1.08 1.18 1.22 1.20 1.20 1.24 1.31 1.41 1.54 1.62 1.67 1.81 1.80 1.67 1.61 1.49 1.40 1.42 1.44 1.53 1.61 1.59 1.56 1.61
0.28 0.25 0.23 0.22 0.20 0.20 0.20 0.29 0.36 0.44 0.62 0.98 1.24 1.25 1.11 1.03 0.98 1.02 1.04 1.03 1.06 1.11 1.17 1.34 1.53 1.64 1.70 1.73 1.78 1.78 1.74 1.68 1.55 1.45 1.35 1.36 1.46 1.51 1.52 1.46 1.45 1.47 1.56
0.28 0.23 0.25 0.32 0.34 0.36 0.33 0.33 0.36 0.38 0.52 0.87 1.06 1.04 0.98 0.98 0.94 0.91 0.96 1.02 1.10 1.16 1.33 1.50 1.62 1.62 1.62 1.66 1.75 1.74 1.67 1.59 1.45 1.32 1.12 1.08 1.27 1.39 1.42 1.30 1.36 1.41 1.45
0.32 0.28 0.25 0.33 0.39 0.42 0.42 0.38 0.38 0.39 0.51 0.78 0.99 1.01 0.95 0.89 0.84 0.87 0.99 1.15 1.23 1.34 1.48 1.54 1.53 1.46 1.21 1.22 1.30 1.36 1.40 1.40 1.32 1.19 1.11 1.08 1.11 1.09 1.06 1.05 1.07 1.13 1.22
0.34 0.27 0.28 0.37 0.50 0.49 0.48 0.49 0.44 0.43 0.57 0.79 0.96 1.05 1.01 1.01 0.98 0.95 1.10 1.28 1.36 1.42 1.48 1.48 1.45 1.39 1.34 1.21 1.08 1.06 1.13 1.20 1.18 1.18 1.20 1.00 0.89 0.98 0.98 1.00 0.93 0.86 0.88
0.40 0.40 0.37 0.42 0.52 0.51 0.53 0.57 0.56 0.57 0.69 0.87 1.03 1.09 1.06 1.10 1.18 1.19 1.26 1.43 1.58 1.59 1.56 1.53 1.48 1.49 1.45 1.33 1.14 1.02 0.98 1.13 1.19 1.17 1.17 1.15 1.09 1.06 1.11 1.13 1.04 0.91 0.85
0.48 0.53 0.56 0.53 0.57 0.59 0.61 0.63 0.66 0.72 0.83 0.89 1.03 1.14 1.22 1.32 1.35 1.38 1.50 1.66 1.77 1.73 1.72 1.75 1.72 1.70 1.68 1.47 1.17 1.04 1.06 1.23 1.26 1.26 1.23 1.20 1.16 1.15 1.03 1.01 1.01 0.99 0.95
0.50 0.52 0.61 0.64 0.68 0.68 0.72 0.78 0.85 0.97 1.13 1.20 1.26 1.44 1.63 1.80 1.87 1.89 1.94 1.97 2.02 1.93 1.88 1.81 1.77 1.72 1.73 1.64 1.25 1.09 1.13 1.31 1.35 1.41 1.38 1.24 1.11 1.03 0.90 0.90 1.02 0.98 0.94
0.46 0.48 0.52 0.61 0.66 0.69 0.84 1.02 1.09 1.21 1.35 1.46 1.53 1.74 2.06 2.22 2.17 2.14 2.09 2.05 2.06 2.04 2.00 1.91 1.88 1.87 1.83 1.77 1.38 1.22 1.27 1.43 1.52 1.50 1.45 1.37 1.20 0.96 0.86 0.81 0.85 0.86 0.87
0.43 0.45 0.49 0.54 0.65 0.77 1.00 1.28 1.38 1.36 1.45 1.63 1.83 2.04 2.28 2.24 2.13 2.27 2.21 2.19 2.24 2.20 2.11 2.07 2.02 2.03 1.98 1.83 1.55 1.31 1.35 1.50 1.63 1.68 1.61 1.48 1.24 0.98 0.86 0.76 0.71 0.68 0.66
0.43 0.48 0.53 0.62 0.71 0.89 1.22 1.51 1.58 1.63 1.66 1.79 1.95 2.06 2.17 2.33 2.46 2.51 2.43 2.35 2.31 2.27 2.12 2.04 1.95 1.90 1.94 1.94 1.52 1.27 1.31 1.39 1.45 1.60 1.61 1.34 1.11 0.95 0.80 0.76 0.75 0.68 0.64
0.47 0.53 0.61 0.75 0.93 1.09 1.37 1.50 1.55 1.58 1.62 1.64 1.67 1.79 1.97 2.10 2.19 2.42 2.50 2.44 2.30 2.24 2.20 2.08 1.95 1.89 1.92 1.90 1.57 1.27 1.24 1.28 1.27 1.35 1.41 1.28 1.10 0.98 0.87 0.82 0.79 0.75 0.77
0.49 0.60 0.69 0.78 0.91 1.08 1.26 1.30 1.41 1.49 1.60 1.59 1.56 1.57 1.63 1.76 1.85 1.97 2.10 2.11 2.13 1.96 1.86 1.74 1.68 1.68 1.73 1.70 1.45 1.26 1.25 1.37 1.43 1.40 1.43 1.44 1.31 1.18 1.07 1.04 1.06 1.07 1.04
0.49 0.60 0.71 0.81 0.91 1.05 1.24 1.31 1.39 1.47 1.54 1.54 1.48 1.48 1.51 1.60 1.68 1.73 1.69 1.54 1.49 1.33 1.20 1.16 1.12 1.13 1.18 1.27 1.13 1.01 1.10 1.26 1.33 1.26 1.29 1.40 1.39 1.31 1.23 1.17 1.17 1.15 1.10